Location: Sungai Bunut
(2.6333°N, 113.7333°E)
Time: 01:23:46
(UTC+00:00)

Vanguard 1 - Pass Details

Date: 09 December 2023
Orbit: 653 x 3825 km, 34.3° (Epoch: 03 March)

Event Time Altitude Azimuth Distance (km) Brightness Sun altitude
Exits shadow 19:21:50 37° 228° (SW) 3,555 12.6 -41.0°
Maximum altitude 19:22:31 37° 223° (SW) 3,491 12.6 -40.9°
Drops below altitude 10° 19:33:02 10° 159° (SSE) 4,048 13.6 -38.5°
Sets 19:36:01 0° 150° (SSE) 4,674 14.2 -37.9°
